EZY23M EGKK-EDDF

Flight info

Callsign EZY23M
Flight time 1h 13m
Altitude 35000
Route MIMFO Y312 DVR UL9 KONAN UL607 KOK DCT REMBA UL607 SPI T180 NIVNU/N0379F230 T847 IMCOM IMCOM1A
Aircraft A320/M-SDE3FGHIRWY/LB1

Departure

Time 2026-04-17 09:13
Airport London Gatwick Airport (EGKK)

Arrival

Time 2026-04-17 10:27
Airport Frankfurt Main Airport (EDDF)
Time Latitude Longitude Altitude Speed Heading
2026-04-17 08:49 51.15525 -0.16661 208 ft 0 kts 348°
2026-04-17 09:06 51.15507 -0.16654 214 ft 4 kts 344°
2026-04-17 09:06 51.15482 -0.16640 214 ft 4 kts 330°
2026-04-17 09:07 51.15462 -0.16615 211 ft 4 kts 292°
2026-04-17 09:07 51.15460 -0.16595 212 ft 0 kts 257°
2026-04-17 09:10 51.15423 -0.16720 209 ft 10 kts 211°
2026-04-17 09:10 51.15373 -0.16789 210 ft 7 kts 224°
2026-04-17 09:10 51.15324 -0.16811 211 ft 8 kts 189°
2026-04-17 09:11 51.15295 -0.16819 205 ft 1 kts 188°
2026-04-17 09:11 51.15290 -0.16820 205 ft 0 kts 188°
2026-04-17 09:11 51.15289 -0.16820 205 ft 2 kts 187°
2026-04-17 09:12 51.15243 -0.16816 208 ft 12 kts 172°
2026-04-17 09:12 51.15156 -0.16798 206 ft 13 kts 188°
2026-04-17 09:12 51.15105 -0.16923 206 ft 15 kts 257°
2026-04-17 09:12 51.15098 -0.16975 214 ft 0 kts 256°
2026-04-17 09:13 51.15092 -0.17016 209 ft 22 kts 257°
2026-04-17 09:13 51.15002 -0.17681 211 ft 97 kts 258°
2026-04-17 09:13 51.14807 -0.19044 219 ft 152 kts 255°
2026-04-17 09:13 51.14562 -0.20734 821 ft 157 kts 254°
2026-04-17 09:14 51.14335 -0.22433 1629 ft 159 kts 255°
2026-04-17 09:14 51.14094 -0.24253 2095 ft 179 kts 256°
2026-04-17 09:14 51.13818 -0.26311 2483 ft 200 kts 255°
2026-04-17 09:14 51.13516 -0.28558 3135 ft 211 kts 255°
2026-04-17 09:15 51.13331 -0.30886 4091 ft 216 kts 270°
2026-04-17 09:15 51.13705 -0.33234 5025 ft 225 kts 292°
2026-04-17 09:15 51.14678 -0.35240 5937 ft 236 kts 316°
2026-04-17 09:15 51.16140 -0.36488 6845 ft 245 kts 341°
2026-04-17 09:16 51.17858 -0.36636 7707 ft 255 kts
2026-04-17 09:16 51.19503 -0.35503 8543 ft 264 kts 37°
2026-04-17 09:16 51.20682 -0.33182 9375 ft 271 kts 67°
2026-04-17 09:16 51.21032 -0.30283 10174 ft 273 kts 97°
2026-04-17 09:17 51.20746 -0.27283 10956 ft 275 kts 104°
2026-04-17 09:17 51.20385 -0.24220 11775 ft 279 kts 105°
2026-04-17 09:17 51.20248 -0.21108 12545 ft 288 kts 85°
2026-04-17 09:17 51.20599 -0.17863 13017 ft 308 kts 81°
2026-04-17 09:18 51.21038 -0.14396 13402 ft 329 kts 81°
2026-04-17 09:18 51.21526 -0.10753 13654 ft 352 kts 80°
2026-04-17 09:18 51.22060 -0.06816 13970 ft 372 kts 80°
2026-04-17 09:18 51.22611 -0.02733 14551 ft 380 kts 80°
2026-04-17 09:19 51.23164 0.01418 15060 ft 384 kts 80°
2026-04-17 09:19 51.23715 0.05611 15711 ft 388 kts 80°
2026-04-17 09:19 51.24272 0.09900 16375 ft 392 kts 80°
2026-04-17 09:19 51.24825 0.14176 17021 ft 396 kts 80°
2026-04-17 09:20 51.25279 0.18532 17645 ft 399 kts 87°
2026-04-17 09:20 51.25281 0.22956 18246 ft 400 kts 98°
2026-04-17 09:20 51.24951 0.27370 18778 ft 403 kts 100°
2026-04-17 09:20 51.24609 0.31837 19303 ft 407 kts 100°
2026-04-17 09:21 51.24266 0.36339 19852 ft 411 kts 100°
2026-04-17 09:21 51.23919 0.40883 20409 ft 415 kts 100°
2026-04-17 09:21 51.23567 0.45476 20946 ft 419 kts 100°
2026-04-17 09:21 51.23213 0.50105 21466 ft 422 kts 100°
2026-04-17 09:22 51.22852 0.54774 22011 ft 426 kts 100°
2026-04-17 09:22 51.22485 0.59479 22578 ft 429 kts 100°
2026-04-17 09:22 51.22114 0.64217 23124 ft 433 kts 100°
2026-04-17 09:22 51.21735 0.69001 23636 ft 436 kts 100°
2026-04-17 09:23 51.21356 0.73754 24099 ft 439 kts 100°
2026-04-17 09:23 51.20969 0.78606 24565 ft 443 kts 100°
2026-04-17 09:23 51.20580 0.83483 25026 ft 446 kts 100°
2026-04-17 09:23 51.20187 0.88406 25485 ft 449 kts 100°
2026-04-17 09:24 51.19790 0.93354 25945 ft 452 kts 100°
2026-04-17 09:24 51.19387 0.98333 26393 ft 454 kts 100°
2026-04-17 09:24 51.18979 1.03342 26805 ft 457 kts 100°
2026-04-17 09:24 51.18569 1.08379 27200 ft 460 kts 100°
2026-04-17 09:25 51.18153 1.13444 27597 ft 462 kts 100°
2026-04-17 09:25 51.17731 1.18540 27983 ft 465 kts 100°
2026-04-17 09:25 51.17302 1.23664 28363 ft 468 kts 100°
2026-04-17 09:25 51.16866 1.28817 28735 ft 471 kts 100°
2026-04-17 09:26 51.16423 1.34003 29092 ft 474 kts 100°
2026-04-17 09:26 51.16009 1.39222 29455 ft 477 kts 98°
2026-04-17 09:26 51.15694 1.44502 29800 ft 480 kts 96°
2026-04-17 09:26 51.15458 1.49827 30155 ft 483 kts 95°
2026-04-17 09:27 51.15258 1.55184 30453 ft 486 kts 95°
2026-04-17 09:27 51.15057 1.60556 30736 ft 488 kts 95°
2026-04-17 09:27 51.14910 1.64206 30929 ft 489 kts 95°
2026-04-17 09:27 51.14587 1.71381 31303 ft 492 kts 96°
2026-04-17 09:28 51.14314 1.76816 31579 ft 493 kts 96°
2026-04-17 09:28 51.14024 1.82268 31881 ft 494 kts 96°
2026-04-17 09:28 51.13825 1.85951 32149 ft 494 kts 96°
2026-04-17 09:28 51.13434 1.93156 32677 ft 492 kts 96°
2026-04-17 09:29 51.13237 1.96817 32955 ft 492 kts 96°
2026-04-17 09:29 51.12951 2.02237 33344 ft 491 kts 96°
2026-04-17 09:29 51.12667 2.07644 33722 ft 490 kts 95°
2026-04-17 09:29 51.12384 2.13051 34101 ft 490 kts 95°
2026-04-17 09:30 51.12096 2.18454 34448 ft 489 kts 95°
2026-04-17 09:30 51.11806 2.23850 34781 ft 489 kts 95°
2026-04-17 09:30 51.11510 2.29233 35097 ft 489 kts 96°
2026-04-17 09:30 51.11212 2.34610 35200 ft 486 kts 95°
2026-04-17 09:31 51.10617 2.45261 35212 ft 481 kts 95°
2026-04-17 09:31 51.10014 2.55856 35215 ft 481 kts 95°
2026-04-17 09:32 51.09218 2.66400 35214 ft 480 kts 104°
2026-04-17 09:32 51.07412 2.76594 35212 ft 479 kts 107°
2026-04-17 09:33 51.05563 2.86766 35216 ft 479 kts 107°
2026-04-17 09:33 51.03728 2.96860 35218 ft 479 kts 107°
2026-04-17 09:34 51.01855 3.07088 35213 ft 479 kts 107°
2026-04-17 09:34 50.99980 3.17233 35215 ft 479 kts 107°
2026-04-17 09:35 50.98100 3.27369 35213 ft 479 kts 107°
2026-04-17 09:35 50.96208 3.37500 35205 ft 478 kts 107°
2026-04-17 09:36 50.94309 3.47606 35205 ft 478 kts 107°
2026-04-17 09:36 50.92411 3.57704 35208 ft 478 kts 107°
2026-04-17 09:37 50.90499 3.67787 35210 ft 478 kts 107°
2026-04-17 09:37 50.88580 3.77862 35219 ft 478 kts 107°
2026-04-17 09:38 50.86662 3.87855 35218 ft 477 kts 107°
2026-04-17 09:38 50.84714 3.97963 35227 ft 477 kts 107°
2026-04-17 09:39 50.82790 4.07915 35226 ft 477 kts 107°
2026-04-17 09:39 50.80836 4.17935 35237 ft 477 kts 108°
2026-04-17 09:40 50.78867 4.28007 35234 ft 476 kts 108°
2026-04-17 09:40 50.76899 4.37997 35253 ft 476 kts 108°
2026-04-17 09:41 50.74927 4.47960 35255 ft 475 kts 108°
2026-04-17 09:41 50.72954 4.57907 35250 ft 475 kts 108°
2026-04-17 09:42 50.70975 4.67838 35240 ft 474 kts 108°
2026-04-17 09:42 50.68985 4.77744 35241 ft 474 kts 108°
2026-04-17 09:43 50.66986 4.87633 35230 ft 473 kts 108°
2026-04-17 09:43 50.64980 4.97512 35237 ft 473 kts 108°
2026-04-17 09:44 50.62955 5.07369 35230 ft 473 kts 108°
2026-04-17 09:44 50.60918 5.17222 35227 ft 473 kts 108°
2026-04-17 09:45 50.58881 5.27055 35223 ft 473 kts 108°
2026-04-17 09:45 50.56840 5.36879 35226 ft 472 kts 108°
2026-04-17 09:46 50.54781 5.46695 35217 ft 472 kts 108°
2026-04-17 09:46 50.52708 5.56487 35213 ft 472 kts 108°
2026-04-17 09:47 50.50657 5.66298 35038 ft 473 kts 107°
2026-04-17 09:47 50.49709 5.71235 34794 ft 471 kts 106°
2026-04-17 09:47 50.48805 5.76186 34552 ft 471 kts 105°
2026-04-17 09:48 50.47922 5.81134 34306 ft 471 kts 105°
2026-04-17 09:48 50.47045 5.86024 34047 ft 471 kts 105°
2026-04-17 09:48 50.46128 5.91030 33768 ft 472 kts 106°
2026-04-17 09:48 50.45203 5.95967 33495 ft 472 kts 106°
2026-04-17 09:49 50.44279 6.00822 33187 ft 469 kts 106°
2026-04-17 09:49 50.43334 6.05763 32585 ft 465 kts 106°
2026-04-17 09:49 50.42405 6.10601 32002 ft 461 kts 106°
2026-04-17 09:49 50.41485 6.15396 31441 ft 457 kts 106°
2026-04-17 09:50 50.40573 6.20143 30867 ft 454 kts 106°
2026-04-17 09:50 50.39664 6.24875 30308 ft 451 kts 106°
2026-04-17 09:50 50.38763 6.29557 29698 ft 447 kts 106°
2026-04-17 09:50 50.37880 6.34129 29165 ft 442 kts 106°
2026-04-17 09:51 50.36995 6.38707 28621 ft 437 kts 106°
2026-04-17 09:51 50.36324 6.43318 28087 ft 432 kts 97°
2026-04-17 09:51 50.36028 6.47963 27573 ft 426 kts 94°
2026-04-17 09:51 50.35759 6.52559 27065 ft 422 kts 94°
2026-04-17 09:52 50.35477 6.57099 26582 ft 417 kts 95°
2026-04-17 09:52 50.35188 6.61591 26100 ft 412 kts 95°
2026-04-17 09:52 50.34897 6.66034 25647 ft 408 kts 95°
2026-04-17 09:52 50.34607 6.70427 25196 ft 404 kts 95°
2026-04-17 09:53 50.34321 6.74774 24742 ft 399 kts 95°
2026-04-17 09:53 50.34042 6.79081 24305 ft 396 kts 95°
2026-04-17 09:53 50.33744 6.83404 23829 ft 393 kts 99°
2026-04-17 09:53 50.33113 6.87487 23334 ft 390 kts 109°
2026-04-17 09:54 50.32059 6.91416 22869 ft 384 kts 116°
2026-04-17 09:54 50.30949 6.95135 22416 ft 381 kts 115°
2026-04-17 09:54 50.29803 6.98973 21943 ft 378 kts 115°
2026-04-17 09:54 50.28708 7.02648 21489 ft 376 kts 115°
2026-04-17 09:55 50.27607 7.06345 21027 ft 374 kts 115°
2026-04-17 09:55 50.26514 7.10017 20551 ft 372 kts 116°
2026-04-17 09:55 50.25422 7.13678 20094 ft 371 kts 116°
2026-04-17 09:55 50.24329 7.17329 19624 ft 370 kts 116°
2026-04-17 09:56 50.23237 7.20962 19158 ft 369 kts 116°
2026-04-17 09:56 50.22159 7.24531 18702 ft 368 kts 116°
2026-04-17 09:56 50.21053 7.28185 18185 ft 367 kts 116°
2026-04-17 09:56 50.19966 7.31774 17735 ft 364 kts 116°
2026-04-17 09:57 50.18945 7.35370 17285 ft 362 kts 113°
2026-04-17 09:57 50.18033 7.39015 16839 ft 359 kts 110°
2026-04-17 09:57 50.17187 7.42663 16398 ft 357 kts 109°
2026-04-17 09:57 50.16375 7.46258 15963 ft 355 kts 109°
2026-04-17 09:58 50.15552 7.49877 15528 ft 353 kts 110°
2026-04-17 09:58 50.14709 7.53522 15080 ft 352 kts 110°
2026-04-17 09:58 50.13875 7.57051 14647 ft 351 kts 110°
2026-04-17 09:58 50.13013 7.60654 14203 ft 350 kts 110°
2026-04-17 09:59 50.12168 7.64147 13741 ft 349 kts 111°
2026-04-17 09:59 50.11282 7.67650 13288 ft 346 kts 115°
2026-04-17 09:59 50.10056 7.70824 13001 ft 338 kts 126°
2026-04-17 09:59 50.08716 7.73801 12797 ft 333 kts 125°
2026-04-17 10:00 50.07400 7.76756 12574 ft 331 kts 125°
2026-04-17 10:00 50.06096 7.79706 12358 ft 330 kts 124°
2026-04-17 10:00 50.04796 7.82643 12130 ft 329 kts 125°
2026-04-17 10:00 50.03501 7.85562 11910 ft 327 kts 125°
2026-04-17 10:01 50.02206 7.88465 11689 ft 326 kts 125°
2026-04-17 10:01 50.01051 7.91481 11470 ft 324 kts 113°
2026-04-17 10:01 50.00435 7.94833 11253 ft 323 kts 97°
2026-04-17 10:01 50.00412 7.98302 11124 ft 322 kts 82°
2026-04-17 10:02 50.00963 8.01655 11025 ft 321 kts 68°
2026-04-17 10:02 50.01762 8.04898 10920 ft 321 kts 68°
2026-04-17 10:02 50.02556 8.08138 10810 ft 320 kts 69°
2026-04-17 10:02 50.03342 8.11370 10706 ft 320 kts 69°
2026-04-17 10:03 50.04126 8.14609 10596 ft 319 kts 69°
2026-04-17 10:03 50.04906 8.17836 10486 ft 319 kts 69°
2026-04-17 10:03 50.05676 8.21022 10369 ft 309 kts 69°
2026-04-17 10:03 50.06421 8.24094 10187 ft 300 kts 69°
2026-04-17 10:04 50.07154 8.27109 9883 ft 296 kts 69°
2026-04-17 10:04 50.07875 8.30077 9723 ft 292 kts 69°
2026-04-17 10:04 50.08590 8.33036 9599 ft 291 kts 69°
2026-04-17 10:04 50.09303 8.35983 9466 ft 291 kts 69°
2026-04-17 10:05 50.10013 8.38922 9334 ft 290 kts 69°
2026-04-17 10:05 50.10732 8.41908 9195 ft 289 kts 69°
2026-04-17 10:05 50.11197 8.43846 9118 ft 289 kts 69°
2026-04-17 10:05 50.12128 8.47733 8946 ft 290 kts 69°
2026-04-17 10:06 50.12830 8.50667 8814 ft 289 kts 70°
2026-04-17 10:06 50.13531 8.53597 8684 ft 288 kts 70°
2026-04-17 10:06 50.14232 8.56526 8555 ft 288 kts 70°
2026-04-17 10:06 50.14930 8.59448 8428 ft 287 kts 70°
2026-04-17 10:07 50.15622 8.62363 8299 ft 287 kts 70°
2026-04-17 10:07 50.16313 8.65282 8168 ft 286 kts 70°
2026-04-17 10:07 50.16777 8.67245 8083 ft 286 kts 70°
2026-04-17 10:07 50.17464 8.70150 7958 ft 285 kts 70°
2026-04-17 10:08 50.18151 8.73047 7821 ft 285 kts 70°
2026-04-17 10:08 50.18837 8.75940 7702 ft 284 kts 70°
2026-04-17 10:08 50.19522 8.78828 7561 ft 283 kts 70°
2026-04-17 10:08 50.20203 8.81709 7449 ft 283 kts 70°
2026-04-17 10:09 50.20880 8.84589 7321 ft 282 kts 70°
2026-04-17 10:09 50.21554 8.87465 7195 ft 282 kts 70°
2026-04-17 10:09 50.22226 8.90327 7078 ft 281 kts 71°
2026-04-17 10:09 50.22896 8.93186 6950 ft 280 kts 71°
2026-04-17 10:10 50.23566 8.96048 6824 ft 280 kts 71°
2026-04-17 10:10 50.24234 8.98901 6699 ft 280 kts 71°
2026-04-17 10:10 50.24901 9.01755 6574 ft 279 kts 71°
2026-04-17 10:11 50.26231 9.07445 6315 ft 279 kts 71°
2026-04-17 10:11 50.26892 9.10283 6182 ft 277 kts 71°
2026-04-17 10:11 50.27549 9.13114 6049 ft 277 kts 71°
2026-04-17 10:11 50.28205 9.15944 5928 ft 277 kts 71°
2026-04-17 10:12 50.28859 9.18771 5802 ft 276 kts 71°
2026-04-17 10:12 50.29510 9.21593 5675 ft 276 kts 71°
2026-04-17 10:12 50.30164 9.24417 5544 ft 276 kts 71°
2026-04-17 10:12 50.30817 9.27233 5413 ft 275 kts 71°
2026-04-17 10:13 50.31467 9.30046 5292 ft 275 kts 71°
2026-04-17 10:13 50.32114 9.32860 5169 ft 275 kts 71°
2026-04-17 10:13 50.32759 9.35674 5041 ft 274 kts 71°
2026-04-17 10:13 50.33401 9.38479 4909 ft 273 kts 71°
2026-04-17 10:14 50.33796 9.41362 4777 ft 271 kts 90°
2026-04-17 10:14 50.33508 9.44250 4641 ft 268 kts 111°
2026-04-17 10:14 50.32582 9.46746 4524 ft 265 kts 133°
2026-04-17 10:14 50.31160 9.48528 4373 ft 263 kts 153°
2026-04-17 10:15 50.29436 9.49403 4268 ft 261 kts 174°
2026-04-17 10:15 50.27617 9.49273 4134 ft 260 kts 194°
2026-04-17 10:15 50.25990 9.48189 4005 ft 258 kts 214°
2026-04-17 10:15 50.24702 9.46265 3974 ft 258 kts 234°
2026-04-17 10:16 50.23898 9.43759 4017 ft 260 kts 250°
2026-04-17 10:16 50.23307 9.41080 4016 ft 261 kts 250°
2026-04-17 10:16 50.22703 9.38407 4020 ft 261 kts 249°
2026-04-17 10:16 50.22088 9.35739 4016 ft 261 kts 249°
2026-04-17 10:17 50.21467 9.33074 4010 ft 261 kts 249°
2026-04-17 10:17 50.20837 9.30373 4012 ft 261 kts 249°
2026-04-17 10:17 50.20224 9.27744 4026 ft 262 kts 249°
2026-04-17 10:17 50.19606 9.25087 4020 ft 260 kts 249°
2026-04-17 10:18 50.18988 9.22427 4017 ft 260 kts 249°
2026-04-17 10:18 50.18372 9.19768 4018 ft 258 kts 249°
2026-04-17 10:18 50.17785 9.17227 4016 ft 240 kts 249°
2026-04-17 10:18 50.17236 9.14855 4010 ft 224 kts 249°
2026-04-17 10:19 50.16719 9.12645 4011 ft 211 kts 248°
2026-04-17 10:19 50.16214 9.10523 4017 ft 208 kts 249°
2026-04-17 10:19 50.15717 9.08404 4019 ft 208 kts 249°
2026-04-17 10:19 50.15223 9.06287 4011 ft 208 kts 249°
2026-04-17 10:20 50.14730 9.04170 4026 ft 213 kts 249°
2026-04-17 10:20 50.14224 9.02001 4028 ft 210 kts 249°
2026-04-17 10:20 50.13726 8.99868 4016 ft 209 kts 249°
2026-04-17 10:20 50.13230 8.97746 4029 ft 208 kts 249°
2026-04-17 10:21 50.12749 8.95691 4025 ft 196 kts 249°
2026-04-17 10:21 50.12285 8.93712 4020 ft 193 kts 249°
2026-04-17 10:21 50.11826 8.91754 4026 ft 191 kts 249°
2026-04-17 10:21 50.11372 8.89818 4034 ft 190 kts 249°
2026-04-17 10:22 50.10917 8.87884 4018 ft 190 kts 249°
2026-04-17 10:22 50.10471 8.85984 3966 ft 180 kts 249°
2026-04-17 10:22 50.10057 8.84222 3770 ft 167 kts 248°
2026-04-17 10:22 50.09669 8.82573 3565 ft 158 kts 248°
2026-04-17 10:23 50.09300 8.81010 3393 ft 151 kts 248°
2026-04-17 10:23 50.08944 8.79498 3178 ft 147 kts 248°
2026-04-17 10:23 50.08595 8.78019 2983 ft 145 kts 248°
2026-04-17 10:23 50.08248 8.76553 2793 ft 144 kts 248°
2026-04-17 10:24 50.07904 8.75096 2595 ft 143 kts 248°
2026-04-17 10:24 50.07560 8.73643 2409 ft 143 kts 249°
2026-04-17 10:24 50.07216 8.72187 2217 ft 143 kts 249°
2026-04-17 10:24 50.06871 8.70732 2023 ft 143 kts 249°
2026-04-17 10:25 50.06526 8.69277 1831 ft 144 kts 249°
2026-04-17 10:25 50.06180 8.67817 1641 ft 143 kts 249°
2026-04-17 10:25 50.05836 8.66367 1442 ft 143 kts 249°
2026-04-17 10:25 50.05491 8.64912 1217 ft 143 kts 249°
2026-04-17 10:26 50.05150 8.63462 1018 ft 143 kts 250°
2026-04-17 10:26 50.04799 8.62015 829 ft 143 kts 249°
2026-04-17 10:26 50.04457 8.60566 655 ft 143 kts 251°
2026-04-17 10:26 50.04118 8.59119 460 ft 142 kts 250°
2026-04-17 10:27 50.03777 8.57699 372 ft 132 kts 249°
2026-04-17 10:27 50.03516 8.56609 361 ft 66 kts 250°
2026-04-17 10:27 50.03435 8.56218 361 ft 20 kts 265°
2026-04-17 10:27 50.03446 8.56006 356 ft 18 kts 279°
2026-04-17 10:28 50.03467 8.55787 355 ft 22 kts 277°
2026-04-17 10:28 50.03489 8.55570 352 ft 19 kts 282°
2026-04-17 10:28 50.03552 8.55518 355 ft 7 kts
2026-04-17 10:28 50.03624 8.55531 355 ft 14 kts
2026-04-17 10:29 50.03746 8.55550 359 ft 18 kts 358°
2026-04-17 10:29 50.03867 8.55505 356 ft 17 kts 340°
2026-04-17 10:29 50.03950 8.55471 359 ft 11 kts 348°
2026-04-17 10:29 50.04017 8.55442 361 ft 11 kts 339°
2026-04-17 10:30 50.04093 8.55415 357 ft 15 kts 12°
2026-04-17 10:30 50.04154 8.55579 363 ft 19 kts 72°
2026-04-17 10:30 50.04205 8.55793 356 ft 23 kts 70°
2026-04-17 10:30 50.04273 8.55960 357 ft 16 kts 14°
2026-04-17 10:31 50.04372 8.55928 353 ft 13 kts 360°
2026-04-17 10:31 50.04432 8.56007 356 ft 11 kts 62°
2026-04-17 10:31 50.04453 8.56105 356 ft 7 kts 89°
2026-04-17 10:31 50.04415 8.56152 356 ft 7 kts 153°
2026-04-17 10:32 50.04401 8.56161 355 ft 1 kts 158°
2026-04-17 10:32 50.04393 8.56166 357 ft 0 kts 158°